Location: Franzen
(48.6167°N, 15.3833°E)
Time: 12:05:15
(UTC+00:00)

SPOT 1/Viking Rocket - Pass Details

Date: 22 April 2021
Orbit: 776 x 794 km, 98.4° (Epoch: 16 May)

Event Time Altitude Azimuth Distance (km) Brightness Sun altitude
Exits shadow 19:33:39 20° 143° (SE) 1,759 4.8 -14.2°
Maximum altitude 19:37:10 59° 70° (ENE) 920 3.7 -14.7°
Drops below altitude 10° 19:42:19 10° 352° (N) 2,372 6.7 -15.3°
Sets 19:44:40 0° 349° (N) 3,304 7.7 -15.6°
